This is the latest recevied weather packets stored in our database for station/object KN4AN. If no packets are shown the sender has not sent any weather packets the latest 10 day(s).
| Time | Temp. | Humidity | Pressure | Rain* | Wind** | Luminosity | Snow |
|---|---|---|---|---|---|---|---|
| 1787897882 | 20° C | 95% | 1016.7 hPa | 0 mm | - | 0 W/m² | - |
| 1787897582 | 20° C | 95% | 1016.6 hPa | 0 mm | - | 0 W/m² | - |
| 1787897281 | 20° C | 94% | 1016.6 hPa | 0 mm | - | 0 W/m² | - |
| 1787896975 | 20° C | 94% | 1016.6 hPa | 0 mm | - | 0 W/m² | - |
| 1787896675 | 20.56° C | 94% | 1016.9 hPa | 0 mm | - | 0 W/m² | - |
| 1787896372 | 20.56° C | 94% | 1016.9 hPa | 0 mm | - | 0 W/m² | - |
| 1787896067 | 20.56° C | 93% | 1016.8 hPa | 0 mm | - | 0 W/m² | - |
| 1787895762 | 20.56° C | 93% | 1016.8 hPa | 0 mm | - | 0 W/m² | - |
| 1787895457 | 20.56° C | 93% | 1016.9 hPa | 0 mm | - | 0 W/m² | - |
| 1787895152 | 20.56° C | 93% | 1016.9 hPa | 0 mm | - | 0 W/m² | - |
| 1787894847 | 20.56° C | 93% | 1016.9 hPa | 0 mm | - | 0 W/m² | - |
| 1787894543 | 20.56° C | 92% | 1017 hPa | 0 mm | - | 0 W/m² | - |
| 1787894237 | 20.56° C | 92% | 1017.2 hPa | 0 mm | - | 0 W/m² | - |
| 1787893934 | 20.56° C | 92% | 1016.9 hPa | 0 mm | - | 0 W/m² | - |
| 1787893629 | 20.56° C | 91% | 1017.1 hPa | 0 mm | - | 0 W/m² | - |
| 1787893324 | 21.11° C | 91% | 1017.1 hPa | 0 mm | - | 0 W/m² | - |
| 1787893021 | 21.11° C | 90% | 1017 hPa | 0 mm | - | 0 W/m² | - |
| 1787892716 | 20.56° C | 91% | 1016.8 hPa | 0 mm | - | 0 W/m² | - |
| 1787892413 | 21.11° C | 91% | 1017 hPa | 0 mm | - | 0 W/m² | - |
| 1787892108 | 21.11° C | 90% | 1017 hPa | 0 mm | - | 0 W/m² | - |
| 1787891803 | 21.11° C | 89% | 1017 hPa | 0 mm | - | 0 W/m² | - |
| 1787891500 | 21.67° C | 87% | 1016.8 hPa | 0 mm | - | 0 W/m² | - |
| 1787891199 | 21.67° C | 86% | 1017.2 hPa | 0 mm | - | 0 W/m² | - |
| 1787890899 | 22.22° C | 84% | 1016.8 hPa | 0 mm | - | 0 W/m² | - |
| 1787890598 | 22.22° C | 82% | 1016.8 hPa | 0 mm | - | 0 W/m² | - |
* Rain latest hour (hover to see other rain measurements)
** Current wind speed in m/s (hover to see current wind gust speed)